Year,Month,Day,Hour,Minute,Value (Times are PST for temperature in C)
2023,05,05,12,23,10.40
2023,05,05,12,24,10.40
2023,05,05,12,25,10.40
2023,05,05,12,26,10.40
2023,05,05,12,27,10.50
2023,05,05,12,28,10.50
2023,05,05,12,29,10.50
2023,05,05,12,30,10.60
2023,05,05,12,31,10.60
2023,05,05,12,32,10.50
2023,05,05,12,33,10.50
2023,05,05,12,34,10.50
2023,05,05,12,35,10.50
2023,05,05,12,36,10.50
2023,05,05,12,37,10.40
2023,05,05,12,38,10.40
2023,05,05,12,39,10.40
2023,05,05,12,40,10.30
2023,05,05,12,41,10.30
2023,05,05,12,42,10.30
2023,05,05,12,43,10.30
2023,05,05,12,44,10.30
2023,05,05,12,45,10.30
2023,05,05,12,46,10.30
2023,05,05,12,47,10.30
2023,05,05,12,48,10.10
2023,05,05,12,49,9.80
2023,05,05,12,50,9.80
2023,05,05,12,51,9.80
2023,05,05,12,52,9.90
2023,05,05,12,53,9.90
2023,05,05,12,54,9.90
2023,05,05,12,55,10.00
2023,05,05,12,56,10.00
2023,05,05,12,57,10.10
2023,05,05,12,58,10.10
2023,05,05,12,59,10.10
2023,05,05,13,00,10.10
2023,05,05,13,01,10.20
2023,05,05,13,02,10.20
2023,05,05,13,03,10.20
2023,05,05,13,04,10.20
2023,05,05,13,05,10.20
2023,05,05,13,06,10.30
2023,05,05,13,07,10.30
2023,05,05,13,08,10.30
2023,05,05,13,09,10.30
2023,05,05,13,10,10.30
2023,05,05,13,11,10.30
2023,05,05,13,12,10.30
2023,05,05,13,13,10.30
2023,05,05,13,14,10.30
2023,05,05,13,15,10.40
2023,05,05,13,16,10.40
2023,05,05,13,17,10.40
2023,05,05,13,18,10.40
2023,05,05,13,19,10.40
2023,05,05,13,20,10.40
2023,05,05,13,21,10.40
2023,05,05,13,22,10.50
2023,05,05,13,23,10.50
2023,05,05,13,24,10.50
2023,05,05,13,25,10.50
2023,05,05,13,26,10.50
2023,05,05,13,27,10.60
2023,05,05,13,28,10.60
2023,05,05,13,29,10.60
2023,05,05,13,30,10.60
2023,05,05,13,31,10.60
2023,05,05,13,32,10.60
2023,05,05,13,33,10.60
2023,05,05,13,34,10.60
2023,05,05,13,35,10.50
2023,05,05,13,36,10.50
2023,05,05,13,37,10.50
2023,05,05,13,38,10.50
2023,05,05,13,39,10.50
2023,05,05,13,40,10.50
2023,05,05,13,41,10.50
2023,05,05,13,42,10.50
2023,05,05,13,43,10.50
2023,05,05,13,44,10.50
2023,05,05,13,45,10.40
2023,05,05,13,46,10.40
2023,05,05,13,47,10.40
2023,05,05,13,48,10.50
2023,05,05,13,49,10.50
2023,05,05,13,50,10.50
2023,05,05,13,51,10.50
2023,05,05,13,52,10.50
2023,05,05,13,53,10.50
2023,05,05,13,54,10.50
2023,05,05,13,55,10.50
2023,05,05,13,56,10.50
2023,05,05,13,57,10.50
2023,05,05,13,58,10.60
2023,05,05,13,59,10.60
2023,05,05,14,00,10.60
2023,05,05,14,01,10.60
2023,05,05,14,02,10.60
2023,05,05,14,03,10.60
2023,05,05,14,04,10.60
2023,05,05,14,05,10.70
2023,05,05,14,06,10.60
2023,05,05,14,07,10.60
2023,05,05,14,08,10.60
2023,05,05,14,09,10.60
2023,05,05,14,10,10.70
2023,05,05,14,11,10.60
2023,05,05,14,12,10.70
2023,05,05,14,13,10.70
2023,05,05,14,14,10.70
2023,05,05,14,15,10.70
2023,05,05,14,16,10.70
2023,05,05,14,17,10.70
2023,05,05,14,18,10.80
2023,05,05,14,19,10.70
2023,05,05,14,20,10.70
2023,05,05,14,21,10.80
2023,05,05,14,22,10.80
2023,05,05,14,23,10.80
2023,05,05,14,24,10.80
2023,05,05,14,25,10.80
2023,05,05,14,26,10.80
2023,05,05,14,27,10.80
2023,05,05,14,28,10.80
2023,05,05,14,29,10.80
2023,05,05,14,30,10.90
2023,05,05,14,31,10.90
2023,05,05,14,32,10.90
2023,05,05,14,33,10.80
2023,05,05,14,34,10.90
2023,05,05,14,35,10.90
2023,05,05,14,36,10.90
2023,05,05,14,37,10.90
2023,05,05,14,38,10.90
2023,05,05,14,39,10.90
2023,05,05,14,40,10.90
2023,05,05,14,41,10.90
2023,05,05,14,42,10.80
2023,05,05,14,43,10.80
2023,05,05,14,44,10.80
2023,05,05,14,45,10.80
2023,05,05,14,46,10.80
2023,05,05,14,47,10.90
2023,05,05,14,48,10.90
2023,05,05,14,49,11.00
2023,05,05,14,50,11.00
2023,05,05,14,51,11.00
2023,05,05,14,52,11.00
2023,05,05,14,53,11.00
2023,05,05,14,54,11.00
2023,05,05,14,55,11.00
2023,05,05,14,56,10.90
2023,05,05,14,57,10.90
2023,05,05,14,58,10.90
2023,05,05,14,59,10.90
2023,05,05,15,00,10.90
2023,05,05,15,01,10.90
2023,05,05,15,02,10.90
2023,05,05,15,03,10.90
2023,05,05,15,04,10.90
2023,05,05,15,05,10.90
2023,05,05,15,06,10.90
2023,05,05,15,07,10.90
2023,05,05,15,08,10.90
2023,05,05,15,09,10.90
2023,05,05,15,10,10.90
2023,05,05,15,11,10.90
2023,05,05,15,12,10.90
2023,05,05,15,13,10.90
2023,05,05,15,14,10.90
2023,05,05,15,15,10.90
2023,05,05,15,16,10.90
2023,05,05,15,17,11.00
2023,05,05,15,18,11.00
2023,05,05,15,19,11.00
2023,05,05,15,20,10.90
2023,05,05,15,21,10.90
2023,05,05,15,22,10.90
2023,05,05,15,23,10.90
2023,05,05,15,24,10.90
2023,05,05,15,25,11.00
2023,05,05,15,26,11.00
2023,05,05,15,27,11.00
2023,05,05,15,28,10.90
2023,05,05,15,29,10.90
2023,05,05,15,30,11.00
2023,05,05,15,31,11.00
2023,05,05,15,32,11.00
2023,05,05,15,33,11.10
2023,05,05,15,34,11.10
2023,05,05,15,35,11.10
2023,05,05,15,36,11.10
2023,05,05,15,37,11.10
2023,05,05,15,38,11.10
2023,05,05,15,39,11.10
2023,05,05,15,40,11.10
2023,05,05,15,41,11.10
2023,05,05,15,42,11.20
2023,05,05,15,43,11.10
2023,05,05,15,44,11.10
2023,05,05,15,45,11.10
2023,05,05,15,46,11.00
2023,05,05,15,47,11.00
2023,05,05,15,48,11.10
2023,05,05,15,49,11.10
2023,05,05,15,50,11.10
2023,05,05,15,51,11.10
2023,05,05,15,52,11.10
2023,05,05,15,53,11.10
2023,05,05,15,54,11.10
2023,05,05,15,55,11.10
2023,05,05,15,56,11.10
2023,05,05,15,57,11.10
2023,05,05,15,58,11.10
2023,05,05,15,59,11.10
2023,05,05,16,00,11.10
2023,05,05,16,01,11.10
2023,05,05,16,02,11.10
2023,05,05,16,03,11.10
2023,05,05,16,04,11.20
2023,05,05,16,05,11.20
2023,05,05,16,06,11.10
2023,05,05,16,07,11.20
2023,05,05,16,08,11.20
2023,05,05,16,09,11.20
2023,05,05,16,10,11.20
2023,05,05,16,11,11.20
2023,05,05,16,12,11.20
2023,05,05,16,13,11.20
2023,05,05,16,14,11.20
2023,05,05,16,15,11.10
2023,05,05,16,16,11.10
2023,05,05,16,17,11.10
2023,05,05,16,18,11.10
2023,05,05,16,19,11.10
2023,05,05,16,20,11.10
2023,05,05,16,21,11.10
2023,05,05,16,22,11.10
2023,05,05,16,23,11.10
2023,05,05,16,24,11.10
2023,05,05,16,25,11.10
2023,05,05,16,26,11.10
2023,05,05,16,27,11.10
2023,05,05,16,28,11.10
2023,05,05,16,29,11.10
2023,05,05,16,30,11.10
2023,05,05,16,31,11.10
2023,05,05,16,32,11.10
2023,05,05,16,33,11.00
2023,05,05,16,34,11.00
2023,05,05,16,35,11.00
2023,05,05,16,36,11.00
2023,05,05,16,37,11.00
2023,05,05,16,38,11.00
2023,05,05,16,39,11.00
2023,05,05,16,40,11.00
2023,05,05,16,41,11.00
2023,05,05,16,42,11.10
2023,05,05,16,43,11.10
2023,05,05,16,44,11.10
2023,05,05,16,45,11.10
2023,05,05,16,46,11.10
2023,05,05,16,47,11.10
2023,05,05,16,48,11.20
2023,05,05,16,49,11.20
2023,05,05,16,50,11.20
2023,05,05,16,51,11.20
2023,05,05,16,52,11.20
2023,05,05,16,53,11.20
2023,05,05,16,54,11.20
2023,05,05,16,55,11.20
2023,05,05,16,56,11.20
2023,05,05,16,57,11.20
2023,05,05,16,58,11.30
2023,05,05,16,59,11.30
2023,05,05,17,00,11.30
2023,05,05,17,01,11.30
2023,05,05,17,02,11.30
2023,05,05,17,03,11.30
2023,05,05,17,04,11.30
2023,05,05,17,05,11.30
2023,05,05,17,06,11.30
2023,05,05,17,07,11.30
2023,05,05,17,08,11.30
2023,05,05,17,09,11.40
2023,05,05,17,10,11.40
2023,05,05,17,11,11.40
2023,05,05,17,12,11.40
2023,05,05,17,13,11.40
2023,05,05,17,14,11.40
2023,05,05,17,15,11.40
2023,05,05,17,16,11.40
2023,05,05,17,17,11.40
2023,05,05,17,18,11.40
2023,05,05,17,19,11.40
2023,05,05,17,20,11.50
2023,05,05,17,21,11.50
2023,05,05,17,22,11.50
2023,05,05,17,23,11.50
2023,05,05,17,24,11.50
2023,05,05,17,25,11.50
2023,05,05,17,26,11.50
2023,05,05,17,27,11.60
2023,05,05,17,28,11.60
2023,05,05,17,29,11.60
2023,05,05,17,30,11.60
2023,05,05,17,31,11.60
2023,05,05,17,32,11.60
2023,05,05,17,33,11.60
2023,05,05,17,34,11.70
2023,05,05,17,35,11.60
2023,05,05,17,36,11.60
2023,05,05,17,37,11.50
2023,05,05,17,38,11.50
2023,05,05,17,39,11.40
2023,05,05,17,40,11.40
2023,05,05,17,41,11.40
2023,05,05,17,42,11.40
2023,05,05,17,43,11.40
2023,05,05,17,44,11.30
2023,05,05,17,45,11.30
2023,05,05,17,46,11.30
2023,05,05,17,47,11.30
2023,05,05,17,48,11.30
2023,05,05,17,49,11.30
2023,05,05,17,50,11.30
2023,05,05,17,51,11.30
2023,05,05,17,52,11.30
2023,05,05,17,53,11.30
2023,05,05,17,54,11.30
2023,05,05,17,55,11.30
2023,05,05,17,56,11.30
